Regional Weather Roundup
Issued by NWS

Home | Current Version | Previous Version | Graphics & Text | Print | Product List | Glossary On
Versions: 1 2 3 4 5 6 7 8 9 10 11 12 13 14 15 16 17 18 19 20 21 22 23 24 25 26 27 28 29 30 31 32 33 34 35 36 37 38 39 40 41 42 43 44 45 46 47 48 49 50
796
ASUS43 KDMX 181006
RWRIA

WEATHER ROUNDUP FOR IOWA
NATIONAL WEATHER SERVICE DES MOINES IA
400 AM CST WED JAN 18 2017

NOTE: "FAIR" INDICATES FEW OR NO CLOUDS BELOW 12,000 FEET WITH NO
SIGNIFICANT WEATHER AND/OR OBSTRUCTIONS TO VISIBILITY.

* - THESE STATIONS ARE NOT NWS STATIONS...THUS NOT UNDER NWS
QUALITY CONTROL.  THEY ALSO DO NOT REPORT WEATHER SUCH
AS PRECIPITATION OR FOG.

IAZ001>003-012>014-020>022-031>034-043>046-181100-
   NORTHWEST IOWA

CITY           SKY/WX    TMP DP  RH WIND       PRES   REMARKS
CARROLL *      CLOUDY    32  32 100 SW6       30.04F WCI  26
CHEROKEE *     CLOUDY    27  27 100 S6        30.01S WCI  20
DENISON *      CLEAR     28  28 100 CALM      30.02F
LE MARS *      CLEAR     30  28  93 S10G16    30.00S WCI  21
ORANGE CITY *  CLEAR     28  28 100 S8        29.97F WCI  20
SHELDON *      CLOUDY    28  30 100 S13       29.95F WCI  18
SIOUX CITY     CLOUDY    26  23  88 SE7       30.01F WCI  18
SPENCER        CLEAR     29  27  92 S15       29.98F WCI  18
STORM LAKE *   CLOUDY    28  27  93 S10       30.01F WCI  19
$$

IAZ055>058-069>071-079>083-090>094-181100-
   SOUTHWEST IOWA

CITY           SKY/WX    TMP DP  RH WIND       PRES   REMARKS
ATLANTIC *     CLEAR     27  27 100 SW5       30.07F FOG     WCI  21
AUDUBON *      CLEAR     28  27  93 CALM      30.06F
CLARINDA *     FOG       28  28 100 S3        30.13F VSB 1/4
COUNCIL BLFS * CLOUDY    28  28 100 S10       30.06F WCI  19
CRESTON *      FOG       28  28 100 SW12      30.10F VSB<1/4 WCI  18
HARLAN  *      CLOUDY    27  27 100 S6        30.08F FOG     WCI  20
LAMONI         FOG       32  31  96 SW10      30.11F VSB 1/2 WCI  24
RED OAK *      MOCLDY    28  28 100 S8        30.10F WCI  20
SHENANDOAH *   CLOUDY    27  27 100 CALM      30.11F
$$

IAZ047>049-059>061-072>074-084-181100-
   CENTRAL IOWA

CITY           SKY/WX    TMP DP  RH WIND       PRES   REMARKS
AMES           CLOUDY    32  32 100 W9        30.09F FOG     WCI  24
ANKENY *       CLOUDY    32  30  93 CALM      30.10F
BOONE *        CLOUDY    32  32 100 SW10      30.06F FOG     WCI  24
CHARITON *     FOG       30  30 100 SW7       30.12F VSB 1   WCI  23
DES MOINES     PTCLDY    30  28  92 SW5       30.09F WCI  25
GRINNELL*      CLOUDY    31  29  94 W9        30.11F WCI  23
KNOXVILLE *    CLOUDY    32  30  93 SW7       30.10S WCI  26
MARSHALLTOWN   CLOUDY    30  29  96 SW9       30.10F FOG     WCI  22
NEWTON *       CLOUDY    32  30  93 W7        30.10F FOG     WCI  26
PELLA *        CLOUDY    32  30  92 W5        30.12F FOG     WCI  27
PERRY *          N/A     32  32 100 S3        30.07F FOG
$$

IAZ004>006-015-016-023>025-035-036-181100-
   NORTH CENTRAL IOWA

CITY           SKY/WX    TMP DP  RH WIND       PRES   REMARKS
ALGONA *       CLOUDY    30  30 100 S20G25    30.02F FOG     WCI  18
CLARION *      CLOUDY    30  30 100 SW15      30.06F FOG     WCI  19
ESTHERVILLE    CLOUDY    25  24  96 S15       29.98S WCI  13
FORT DODGE *   CLOUDY    30  28  93 MISG      30.06F
MASON CITY     CLOUDY    28  26  92 SW14      30.06R WCI  17
FOREST CITY *  CLOUDY    28  28 100 SW12      30.04S FOG     WCI  18
WEBSTER CITY * CLOUDY    32  32 100 SW14      30.05F FOG     WCI  22
IOWA FALLS *   CLOUDY    31  29  94 SW9       30.09F FOG     WCI  23
$$

IAZ007>011-017>019-026>030-037>042-050>054-066-181100-
   NORTHEAST IOWA

CITY           SKY/WX    TMP DP  RH WIND       PRES   REMARKS
CEDAR RAPIDS   CLOUDY    30  29  96 W15       30.12R WCI  19
CHARLES CITY * CLOUDY    28  30 100 SW13      30.07S FOG     WCI  18
CLINTON *      CLOUDY    33  33 100 W9        30.13S FOG     WCI  25
DECORAH *      CLOUDY    30  30 100 SW8G15    30.04S FOG     WCI  23
DUBUQUE        CLOUDY    32  31  96 W15       30.09S FOG     WCI  22
MONTICELLO *   CLOUDY    32  32 100 W16       30.11R WCI  21
OELWEIN *      CLOUDY    30  30 100 SW15      30.08S FOG     WCI  19
WATERLOO       CLOUDY    30  28  92 SW17      30.10R WCI  18
$$

IAZ064-065-067-068-078-181100-
   EAST CENTRAL IOWA

CITY           SKY/WX    TMP DP  RH WIND       PRES   REMARKS
DAVENPORT      CLOUDY    34  33  96 W15       30.13S FOG     WCI  24
IOWA CITY      CLOUDY    33  31  92 W12       30.16R WCI  24
MUSCATINE *    CLOUDY    36  30  80 W9G15     30.16S WCI  29
QUAD CITIES    CLOUDY    36  33  89 W9        30.13S FOG     WCI  29
$$

IAZ062-063-075>077-085>089-095>099-181100-
   SOUTHEAST IOWA

CITY           SKY/WX    TMP DP  RH WIND       PRES   REMARKS
BURLINGTON     CLOUDY    34  31  88 W7        30.15R WCI  28
FAIRFIELD *    CLOUDY    32  28  86 SW3       30.14S
FORT MADISON * CLOUDY    34  30  86 SW6       30.17R WCI  29
KEOKUK *       CLOUDY    32  30  93 SW6       30.16S WCI  26
OSKALOOSA *      N/A     30  29  94 CALM      30.13F
OTTUMWA        CLEAR     31  27  85 SW3       30.12F
WASHINGTON *   CLOUDY    32  30  93 W9        30.15F WCI  24
$$

ABBREVIATIONS USED IN REMARKS
   TC - TEMPERATURES IN CELSIUS
  WCI - WIND CHILL INDEX
   HX - HEAT INDEX
  VSB - VISIBILITY
$$





USA.gov is the U.S. government's official web portal to all federal, state and local government web resources and services.